Regional Weather Roundup
Issued by NWS

Home | Current Version | Previous Version | Text Only | Print | Product List | Glossary On
Versions: 1 2 3 4 5 6 7 8 9 10 11 12 13 14 15 16 17 18 19 20 21 22 23 24 25 26 27 28 29 30 31 32 33 34 35 36 37 38 39 40 41 42 43 44 45 46 47 48 49 50
000
ASCA44 KEWX 220320
RWRMX

LATIN AMERICA AND CARIBBEAN REGIONAL WEATHER ROUNDUP
NATIONAL WEATHER SERVICE AUSTIN/SAN ANTONIO TX
900 PM CST TUE FEB 21 2017

NOTE: "FAIR" INDICATED FEW OR NO CLOUDS BELOW 12,000 FEET WITH NO
SIGNIFICANT WEATHER AND/OR OBSTRUCTIONS TO VISIBILITY.

BAJA CALIFORNIA

CITY           SKY/WX    TMP DP  RH WIND       PRES   REMARKS
LA PAZ         CLEAR     68  52  56 NE7       30.02R
MEXICALI         N/A    N/A N/A N/A MISG        N/A
S.J. DEL CABO  CLEAR     68  54  60 W8        29.98R
TIJUANA        CLEAR     57  52  82 W6        30.24R

NORTHWESTERN MEXICO

CITY           SKY/WX    TMP DP  RH WIND       PRES   REMARKS
CULIACAN       CLEAR     72  63  73 S6        29.87R
DURANGO        CLEAR     55   7  14 N6        30.34R
GUAYMAS          N/A    N/A N/A N/A MISG        N/A
HERMOSILLO     CLEAR     79  54  41 NW7       30.02R
CD. JUAREZ     CLEAR     64  37  36 CALM      30.13R
LOS MOCHIS     CLEAR     64  57  77 NW16      29.94S

NORTHEASTERN MEXICO

CITY           SKY/WX    TMP DP  RH WIND       PRES   REMARKS
CHIHUAHUA      CLEAR     54  21  28 S6        30.25R
MONCLOVA         N/A    N/A N/A N/A MISG        N/A
MONTERREY      CLEAR     73  10   9 SW3       30.02R
REYNOSA          N/A    N/A N/A N/A MISG        N/A
SALTILLO       CLEAR     59  36  41 SW6       30.29R
TORREON        CLEAR     68  27  21 CALM      30.21R
CD. VICTORIA   CLEAR     64  27  24 W9        30.03R

WESTERN MEXICO

CITY           SKY/WX    TMP DP  RH WIND       PRES   REMARKS
AGUASCALIENTES CLEAR     61  19  20 NE10      30.28R
COLIMA         CLEAR     68  63  83 W7        30.03R
DEL BAJIO      CLEAR     64  21  19 N8        30.28R
GUADALAJARA    CLEAR     61  32  33 CALM      30.15R
MAZATLAN       CLEAR     70  59  68 N9        29.92R
P. VALLARTA    CLEAR     70  64  83 CALM      29.94R
URUAPAN          N/A    N/A N/A N/A MISG        N/A
ZACATECAS      CLEAR     48   5  17 E8        30.36R WCI  45

CENTRAL MEXICO

CITY           SKY/WX    TMP DP  RH WIND       PRES   REMARKS
CUERNAVACA       N/A    N/A N/A N/A MISG        N/A
MEXICO CITY    MOCLDY    66  34  30 N10       30.32R
MORELIA        CLEAR     64  30  27 W3        30.22R
POZA RICA      CLEAR     75  57  53 SE7       30.09R
QUERETARO      CLEAR     63  41  45 NE17      30.30R
S. LUIS POTOSI CLEAR     57  27  30 NE6       30.30R
TAMPICO        CLEAR     73  54  49 S7        30.01R
TOLUCA         PTCLDY    59  34  38 SW2       30.39R

SOUTHERN MEXICO

CITY           SKY/WX    TMP DP  RH WIND       PRES   REMARKS
ACAPULCO       CLEAR     77  72  83 W7        29.92R
B. DE HUATULCO   N/A    N/A N/A N/A MISG        N/A
P. ESCONDIDO     N/A    N/A N/A N/A MISG        N/A
VERACRUZ       CLEAR     68  57  68 S5        30.07R
ZIHUATANEJO    CLEAR     75  68  78 CALM      29.95R

YUCATAN PENINSULA

CITY           SKY/WX    TMP DP  RH WIND       PRES   REMARKS
CAMPECHE       PTCLDY    77  70  78 N12G23    29.93R
CANCUN         MOCLDY    79  72  78 SE6       29.91R
CHETUMAL       PTCLDY    79  72  78 SE9       29.92R
CD. DEL CARMEN   N/A    N/A N/A N/A MISG        N/A
COZUMEL        PTCLDY    77  72  83 S7        29.89R
MERIDA         PTCLDY    75  61  60 NW5       29.96S
MINATITLAN       N/A    N/A N/A N/A MISG        N/A
TAPACHULA      PTCLDY    77  72  83 CALM      29.89R
TUX. GUTIERREZ PTCLDY    68  55  64 W17G29    30.03R
VILLAHERMOSA   CLOUDY    72  66  83 SW5       30.07R

CENTRAL AMERICA

CITY           SKY/WX    TMP DP  RH WIND       PRES   REMARKS
MANAGUA        PTCLDY    81  72  74 SE7       29.89R

CARIBBEAN

CITY           SKY/WX    TMP DP  RH WIND       PRES   REMARKS
ARUBA          PTCLDY    77  68  73 NE6       29.89S
CURACAO        PTCLDY    79  68  69 NE12      29.92R
KINGSTON       PTCLDY    77  68  73 NW12      29.89S
NASSAU         CLOUDY    72  63  73 NE3       30.02F
SAN JUAN       PTCLDY    77  64  65 NW10      29.90R
SANTO DOMINGO  PTCLDY    75  66  73 N9        29.89S
ST. CROIX      CLEAR     75  63  64 NW5       29.89
ST. MAARTEN    PTCLDY    75  64  69 NW6       29.86S
ST. THOMAS     PTCLDY    75  64  69 NW13      29.88

$$




USA.gov is the U.S. government's official web portal to all federal, state and local government web resources and services.